| time (UTC) | temp F | wind direction | speed knots | gust knots | rain 1hr in | rain 24hr in | rain mn in | humidity % | barometer mb |
| 20260504034508 | 51 | 184 | 1.7 | 5.2 | 0.00 | 0.00 | 0.00 | 88 | 1011.1 |
| 20260504033010 | 51 | 205 | 0.0 | 3.5 | 0.00 | 0.00 | 0.00 | 87 | 1011.2 |
| 20260504031506 | 52 | 209 | 0.0 | 3.5 | 0.00 | 0.00 | 0.00 | 87 | 1011.3 |
| 20260504030005 | 52 | 209 | 0.0 | 1.7 | 0.00 | 0.00 | 0.00 | 87 | 1011.2 |
| 20260504024510 | 52 | 209 | 0.0 | 1.7 | 0.00 | 0.00 | 0.00 | 86 | 1011.4 |
| 20260504023004 | 52 | 209 | 1.7 | 5.2 | 0.00 | 0.00 | 0.00 | 86 | 1011.5 |
| 20260504021501 | 52 | 163 | 2.6 | 5.2 | 0.00 | 0.00 | 0.00 | 85 | 1011.5 |
| 20260504014558 | 52 | 172 | 2.6 | 6.1 | 0.00 | 0.00 | 0.00 | 83 | 1011.4 |
| 20260504013057 | 53 | 184 | 0.9 | 3.5 | 0.00 | 0.00 | 0.00 | 83 | 1011.4 |
| 20260504011556 | 52 | 188 | 0.0 | 3.5 | 0.00 | 0.00 | 0.00 | 83 | 1011.4 |
| 20260504010058 | 52 | 188 | 0.0 | 2.6 | 0.00 | 0.00 | 0.00 | 82 | 1011.5 |
| 20260504004553 | 53 | 188 | 1.7 | 4.3 | 0.00 | 0.00 | 0.00 | 82 | 1011.8 |
| 20260504003052 | 53 | 188 | 2.6 | 5.2 | 0.00 | 0.00 | 0.00 | 80 | 1011.8 |
| 20260504001607 | 54 | 207 | 3.5 | 5.2 | 0.00 | 0.00 | 0.00 | 80 | 1011.8 |
| 20260504000048 | 54 | 271 | 1.7 | 5.2 | 0.00 | 0.00 | 0.00 | 79 | 1011.6 |
| 20260503234545 | 54 | 207 | 3.5 | 7.8 | 0.00 | 0.00 | 0.00 | 78 | 1011.7 |
| 20260503233042 | 54 | 255 | 1.7 | 6.1 | 0.00 | 0.00 | 0.00 | 77 | 1011.7 |
| 20260503231542 | 55 | 262 | 1.7 | 7.0 | 0.00 | 0.00 | 0.00 | 76 | 1011.7 |
| 20260503230045 | 55 | 273 | 0.9 | 5.2 | 0.00 | 0.00 | 0.00 | 75 | 1011.7 |
| 20260503224539 | 55 | 227 | 1.7 | 6.1 | 0.00 | 0.00 | 0.00 | 74 | 1011.9 |
| 20260503223041 | 55 | 234 | 1.7 | 6.1 | 0.00 | 0.00 | 0.00 | 74 | 1011.9 |
| 20260503221541 | 55 | 219 | 2.6 | 6.1 | 0.00 | 0.00 | 0.00 | 74 | 1012.0 |
| 20260503220036 | 55 | 186 | 3.5 | 7.0 | 0.00 | 0.00 | 0.00 | 73 | 1012.1 |
| 20260503214532 | 56 | 215 | 2.6 | 5.2 | 0.00 | 0.00 | 0.00 | 72 | 1011.9 |
| 20260503213038 | 56 | 228 | 0.0 | 2.6 | 0.00 | 0.00 | 0.00 | 72 | 1011.6 |
| 20260503211536 | 56 | 276 | 0.9 | 2.6 | 0.00 | 0.00 | 0.00 | 73 | 1011.6 |
| 20260503210031 | 56 | 283 | 0.0 | 2.6 | 0.00 | 0.00 | 0.00 | 74 | 1011.4 |
| 20260503204531 | 56 | 355 | 1.7 | 7.0 | 0.00 | 0.00 | 0.00 | 75 | 1011.4 |
| 20260503203034 | 56 | 235 | 1.7 | 4.3 | 0.00 | 0.00 | 0.00 | 75 | 1011.4 |
| 20260503201531 | 57 | 273 | 2.6 | 6.1 | 0.00 | 0.00 | 0.00 | 73 | 1011.2 |
| 20260503200033 | 57 | 271 | 2.6 | 7.0 | 0.00 | 0.00 | 0.00 | 70 | 1011.0 |
| 20260503194531 | 58 | 333 | 4.3 | 8.7 | 0.00 | 0.00 | 0.00 | 68 | 1010.8 |
| 20260503193029 | 60 | 297 | 3.5 | 10.4 | 0.00 | 0.00 | 0.00 | 63 | 1010.4 |
| 20260503191528 | 62 | 226 | 0.9 | 5.2 | 0.00 | 0.00 | 0.00 | 55 | 1010.1 |
| 20260503190035 | 63 | 219 | 2.6 | 7.8 | 0.00 | 0.01 | 0.00 | 53 | 1009.7 |
| 20260503184528 | 63 | 269 | 2.6 | 10.4 | 0.00 | 0.01 | 0.00 | 53 | 1009.4 |
| 20260503183035 | 64 | 247 | 2.6 | 9.6 | 0.00 | 0.01 | 0.00 | 50 | 1009.2 |
| 20260503181543 | 65 | 232 | 4.3 | 10.4 | 0.00 | 0.01 | 0.00 | 49 | 1009.2 |
| 20260503180025 | 66 | 234 | 3.5 | 12.2 | 0.00 | 0.02 | 0.00 | 50 | 1009.1 |
| 20260503174523 | 65 | 227 | 6.1 | 13.9 | 0.00 | 0.02 | 0.00 | 50 | 1009.1 |
| 20260503173041 | 65 | 220 | 1.7 | 7.8 | 0.00 | 0.02 | 0.00 | 58 | 1009.2 |
| 20260503171522 | 64 | 190 | 3.5 | 8.7 | 0.00 | 0.02 | 0.00 | 56 | 1009.2 |
| 20260503130153 | 61 | 277 | 4.3 | 7.8 | 0.00 | 0.10 | 0.00 | 68 | 1011.1 |
| 20260503120124 | 61 | 158 | 0.9 | 5.2 | 0.00 | 0.11 | 0.00 | 70 | 1011.7 |
| 20260503110124 | 61 | 172 | 6.1 | 10.4 | 0.00 | 0.19 | 0.00 | 70 | 1012.4 |
| 20260503100106 | 59 | 179 | 3.5 | 7.8 | 0.00 | 0.24 | 0.00 | 75 | 1012.7 |
| 20260503081541 | 53 | 163 | 5.2 | 7.8 | 0.00 | 0.24 | 0.00 | 89 | 1013.1 |
| 20260503080140 | 52 | 179 | 0.9 | 4.3 | 0.00 | 0.24 | 0.00 | 88 | 1013.1 |
| 20260503071538 | 53 | 194 | 2.6 | 6.1 | 0.00 | 0.24 | 0.00 | 86 | 1012.8 |
| 20260503054533 | 52 | 180 | 0.0 | 0.0 | 0.00 | 0.24 | 0.00 | 87 | 1012.5 |
| 20260503053039 | 52 | 180 | 0.0 | 0.0 | 0.00 | 0.24 | 0.00 | 87 | 1012.5 |
| 20260503051531 | 52 | 180 | 0.0 | 0.0 | 0.00 | 0.24 | 0.00 | 86 | 1012.7 |
| 20260503050033 | 52 | 180 | 0.0 | 0.0 | 0.00 | 0.24 | 0.00 | 86 | 1012.7 |
| 20260503044601 | 52 | 180 | 0.0 | 0.0 | 0.00 | 0.24 | 0.00 | 85 | 1012.7 |
| 20260503043028 | 52 | 180 | 0.0 | 0.0 | 0.00 | 0.24 | 0.00 | 85 | 1012.8 |
| 20260503041529 | 52 | 180 | 0.0 | 0.0 | 0.00 | 0.24 | 0.00 | 85 | 1012.7 |
| 20260503040028 | 52 | 180 | 0.0 | 0.0 | 0.00 | 0.24 | 0.00 | 85 | 1012.9 |